Regional Weather Roundup
Issued by NWS Newport/Morehead, NC

Current Version | Previous Version | Graphics & Text | Print | Product List | Glossary Off
Versions: 1 2 3 4 5 6 7 8 9 10 11 12 13 14 15 16 17 18 19 20 21 22 23 24 25 26 27 28 29 30 31 32 33 34 35 36 37 38 39 40 41 42 43 44 45 46 47 48 49 50

000
ASUS42 KMHX 271112
RWRMHX
WEATHER ROUNDUP FOR EASTERN NORTH CAROLINA
NATIONAL WEATHER SERVICE NEWPORT/MOREHEAD CITY NC
700 AM EDT MON APR 27 2015

NOTE: "FAIR" INDICATES FEW OR NO CLOUDS BELOW 12,000 FEET
WITH NO SIGNIFICANT WEATHER AND/OR OBSTRUCTIONS TO VISIBILITY

NCZ015>017-031-032-045>047-102-103-271200-
NORTH COAST

CITY           SKY/WX    TMP DP  RH WIND       PRES   REMARKS
EDENTON        CLEAR     41  40  98 N3        29.76R
ELIZABETH CITY CLEAR     42  40  92 CALM      29.76R
KITTY HAWK     SUNNY     50  42  75 NW6       29.74R
MANTEO         CLEAR     51  43  73 N6        29.75R

$$

NCZ045>047-081-094-103-104-271200-
CENTRAL COAST

CITY           SKY/WX    TMP DP  RH WIND       PRES   REMARKS
FRISCO         PTCLDY    51  38  60 VRB7      29.73R
SWANQUARTER      N/A     46 N/A N/A NW3       29.74R

$$

NCZ095-097-098-100-101-271200-
SOUTHERN COAST

CITY           SKY/WX    TMP DP  RH WIND       PRES   REMARKS
BEAUFORT       CLEAR     50  48  93 N10       29.74R
CEDAR ISLAND     N/A     55 N/A N/A NW10G17   29.77S
JACKSONVILLE   CLEAR     49  46  90 N8        29.77R
PINEY ISLAND   SUNNY    N/A N/A N/A NW13      29.74R
WILMINGTON     CLEAR     48  47  96 NW3       29.77R FOG


$$

NCZ011>013-027>030-043-044-078>080-089-090>093-098-271200-
COASTAL PLAIN

CITY           SKY/WX    TMP DP  RH WIND       PRES   REMARKS
AHOSKIE        CLEAR     38  37  98 CALM      29.77R FOG
CLINTON        CLEAR     44  44 100 CALM      29.80R
ELIZABETHTOWN  CLEAR     48  48 100 CALM      29.79R
GOLDSBORO      CLEAR     44  44  99 CALM      29.76R
GREENVILLE     FOG       41  41 100 CALM      29.80R VSB 1/4
HAVELOCK       CLEAR     50  46  86 N9        29.76R
KENANSVILLE    CLEAR     44  44  99 CALM      29.79R
KINSTON        CLEAR     43  43 100 CALM      29.79R
NEW BERN       CLEAR     48  45  89 N6        29.77R
RICHLANDS      CLEAR     46  43  87 CALM      29.78R
ROCKY MOUNT    CLEAR     42  41  96 CALM      29.77R FOG
WASHINGTON     CLEAR     42  42  98 CALM      29.77R
WHITEVILLE     CLEAR     48  47  95 CALM      29.78R

$$

AMZ130-135-150-152-154-156-158-170-250-252-270-ANZ085-086-088-633-658-670-271200-
MARINE OBSERVATIONS

STATION/POSITION TIME  TEMP    WIND        PRES    WAVE   SWELL
                       AIR SEA DIR/SP/G            HT/PER HT/PER
                 (UTC) (F)     (DEG/KT/KT) (MB)    (FT/S) (FT/S)
CHESAPEAKE LIGHT 1100   52     250/ 11/ 11 1007.4
64 E VA BEACH    1050   54 55  320/ 10/ 12 1006.1    3/ 7   3/ 7
DUCK             1000   51 54  300/  8/ 11 1005.7
2 E DUCK         1011      54                N/A     3/ 7   2/11
10 NE DUCK       NOT AVBL
OREGON INLET     1000   46 54  340/  4/  6 1006.3
HATTERAS CG      1000   57 60  360/ 15/ 17 1005.5
DIAMOND BUOY     1050   59 75   10/ 17/ 23 1005.7    6/ 9   5/ 9
CAPE LOOKOUT     1100   53     340/ 13/ 15 1006.7
BEAUFORT LAB     1000   53 61  340/  7/ 10 1005.7
27 SE WRIGHTSVLE 1000   54 72   20/ 12/ 14   N/A
5 SE WRIGHTSVLE  NOT AVBL
225 S CAPE HAT   1050   67 70   10/  8/ 10 1004.2    6/ 8   7/ 8
41 SE CHARLESTON 1050   62 71  360/ 14/ 16 1006.7    5/ 6   2/10

$$



USA.gov is the U.S. government's official web portal to all federal, state and local government web resources and services.